User: anonymous
Location: Robert Brownlee Observatory
(34.2308°N, 117.2089°W)
Time: 19:57:53
(UTC-07:00)
Language:

Cosmos 1943 - Orbit

View from above orbital plane
View from above orbital plane
View from above satellite
View from above satellite

Ground track
Ground track

The orbit data is extracted from the following two-line orbital elements,

1 19119U 88039A   14210.10310705 -.00000050  00000-0 -14203-5 0  2012
2 19119 071.0051 155.1442 0012933 230.0887 211.3907 14.14941172352989
Epoch (UTC): 29 July 2014 02:28:28
Eccentricity: 0.0012933
inclination: 71.0051°
perigee height: 833 km
apogee height: 852 km
right ascension of ascending node: 155.1442°
argument of perigee: 230.0887°
revolutions per day: 14.14941172
mean anomaly at epoch: 211.3907°
orbit number at epoch: 35298

The dashed part of the orbit path shows where the satellite is in the earth's shadow,  

DLR